Mather AFB, CA

3:09 AM PDT on March 24, 2017 (GMT -0700)
Mather

Weather History for KMHR - September, 2013

Change the Weather History Date:

Friday, September 27, 2013

  Actual Average Record
Temperature  
Mean Temperature 64 °F -  
Max Temperature 77 °F 82 °F 96 °F (2008)
Min Temperature 50 °F 53 °F 48 °F (2004)
Degree Days  
Heating Degree Days 2    
Growing Degree Days 14 (Base 50)    
Moisture  
Dew Point 37 °F    
Average Humidity 46    
Maximum Humidity 66    
Minimum Humidity 19    
Precipitation  
Precipitation 0.00 in - - ()
Sea Level Pressure  
Sea Level Pressure 30.04 in    
Wind  
Wind Speed 6 mph (NNW)    
Max Wind Speed 13 mph    
Max Gust Speed -    
Visibility 10 miles    
Events      
Averages and records for this station are not official NWS values.
T = Trace of Precipitation, MM = Missing Value Source: NWS Daily Summary

Daily Weather History Graph

Daily Weather History Graph

Search for Another Location

Airport or City:

Trip Planner

Search our weather history database for the weather conditions in past years. The results will help you decide how hot, cold, wet, or windy it might be!

Date:

Astronomy

Sep. 27, 2013 Rise Set
Actual Time 6:57 AM PDT 6:53 PM PDT
Civil Twilight 6:31 AM PDT 7:20 PM PDT
Nautical Twilight 6:00 AM PDT 7:50 PM PDT
Astronomical Twilight 5:29 AM PDT 8:21 PM PDT
Moon 12:01 AM PDT (9/27) 2:32 PM PDT (9/27)
Length of Visible Light 12h 48m
Length of Day
11h 56m
Last Quarter, 44% of the Moon is Illuminated
Sep 27
Last Quarter
Oct 4
New
Oct 11
First Quarter
Oct 18
Full
Oct 26
Last Quarter

Hourly Weather History & Observations

Time (PDT) Temp. Dew Point Humidity Pressure Visibility Wind Dir Wind Speed Gust Speed Precip Events Conditions
12:46 AM 57.2 °F 37.4 °F 48% 29.97 in 10.0 mi NW 10.4 mph - N/A   Clear
1:46 AM 55.4 °F 37.4 °F 51% 29.98 in 10.0 mi NW 12.7 mph - N/A   Clear
2:46 AM 51.8 °F 39.2 °F 62% 30.00 in 10.0 mi Calm Calm - N/A   Clear
3:46 AM 50.0 °F 39.2 °F 66% 30.00 in 10.0 mi North 4.6 mph - N/A   Clear
4:46 AM 50.0 °F 39.2 °F 66% 30.01 in 10.0 mi NNW 6.9 mph - N/A   Clear
5:46 AM 50.0 °F 37.4 °F 62% 30.02 in 10.0 mi NNW 5.8 mph - N/A   Clear
6:47 AM 50.0 °F 37.4 °F 62% 30.04 in 10.0 mi NNW 4.6 mph - N/A   Clear
7:45 AM 53.6 °F 39.2 °F 58% 30.06 in 10.0 mi NNW 8.1 mph - N/A   Clear
8:49 AM 55.4 °F 39.2 °F 54% 30.08 in 10.0 mi North 6.9 mph - N/A   Clear
9:51 AM 60.8 °F 39.2 °F 45% 30.09 in 10.0 mi NNE 5.8 mph - N/A   Clear
10:46 AM 64.4 °F 37.4 °F 37% 30.10 in 10.0 mi NE 3.5 mph - N/A   Clear
11:45 AM 68.0 °F 35.6 °F 30% 30.09 in 10.0 mi NW 4.6 mph - N/A   Clear
12:45 PM 73.4 °F 35.6 °F 25% 30.07 in 10.0 mi WNW 6.9 mph - N/A   Clear
1:45 PM 75.2 °F - N/A% 30.05 in 10.0 mi Calm Calm - N/A   Clear
2:48 PM 77.0 °F 35.6 °F 22% 30.03 in 10.0 mi WNW 4.6 mph - N/A   Clear
4:45 PM 77.0 °F 32.0 °F 19% 30.01 in 10.0 mi NW 8.1 mph - N/A   Clear
6:55 PM 73.4 °F 33.8 °F 23% 30.01 in 10.0 mi WNW 3.5 mph - N/A   Clear
7:50 PM 68.0 °F 33.8 °F 28% 30.02 in 10.0 mi Calm Calm - N/A   Clear
8:45 PM 57.2 °F 35.6 °F 44% 30.03 in 10.0 mi Calm Calm - N/A   Clear
10:50 PM 55.4 °F 39.2 °F 54% 30.04 in 10.0 mi ESE 3.5 mph - N/A   Clear
11:45 PM 51.8 °F 39.2 °F 62% 30.04 in 10.0 mi ESE 5.8 mph - N/A   Clear